Aktuell
News
Messwerte
Diagramme
Archiv
Wettervorhersage
Regen
Wettergefahren

Astro & Geo
Health
Pegel
Gästebuch
Kontakt
Impressum
Datenschutz
App

Leichter Regen bei 5.6 °C – Luftdruck: 998.4 hPa – Wind: OSO 3.2 km/h
Messwerte von 12:54 Uhr; Warnsymbol: Datenbasis DWD
Übersicht
Heute
Gestern
Vor 1 Jahr
Info
Heute – Der Tag im Rückblick
 
Messwerte von Donnerstag, 28.01.2021
Symbol
Zeitpunkt
Wetter-
zustand
Zeitpunkt
Temperatur
gefühlt
Zeitpunkt
Luftfeuchte
Taupunkt
Zeitpunkt
Luftdruck
Zeitpunkt
Wind
Zeitpunkt
Windböen
Max 15 Min.
Wind-
richtung
Zeitpunkt
Regen
Summe 1 h
Regenrate
Max 15 Min.
UV-Index
Max 15 Min.
Pegel Köln
Zeitpunkt
Warnlage
Zeitpunkt
00:15 Bedeckt2 5.2 °C
5.2 °C
94 %
4.2 °C
1011.5 hPa 1.4 km/h
1 Bft
4.7 km/h
1 Bft
SO -
0.0 mm/h
0.0 444 cm
00:30 Bedeckt2 5.1 °C
5.1 °C
93 %
3.9 °C
1011.4 hPa 1.4 km/h
1 Bft
3.2 km/h
1 Bft
SO -
0.0 mm/h
0.0 444 cm
00:45 Leichter Regen1 5.0 °C
5.0 °C
93 %
3.8 °C
1011.1 hPa 1.4 km/h
1 Bft
4.7 km/h
1 Bft
SO -
0.0 mm/h
0.0 443 cm
01:00 Bedeckt2 5.0 °C
4.2 °C
93 %
3.8 °C
1010.9 hPa 1.4 km/h
1 Bft
4.7 km/h
1 Bft
SO 0.28 mm
0.0 mm/h
0.0 442 cm
01:15 Bedeckt2 5.0 °C
5.0 °C
93 %
3.8 °C
1010.8 hPa 1.4 km/h
1 Bft
4.7 km/h
1 Bft
SO -
0.0 mm/h
0.0 442 cm
01:30 Leichter Regen1 5.0 °C
5.0 °C
94 %
4.0 °C
1010.6 hPa 1.4 km/h
1 Bft
4.7 km/h
1 Bft
SO -
0.0 mm/h
0.0 442 cm
01:45 Leichter Regen1 5.0 °C
5.0 °C
94 %
4.0 °C
1010.5 hPa 1.4 km/h
1 Bft
4.7 km/h
1 Bft
SO -
0.0 mm/h
0.0 442 cm
02:00 Bedeckt2 5.0 °C
5.0 °C
94 %
4.0 °C
1010.2 hPa 1.4 km/h
1 Bft
4.7 km/h
1 Bft
OSO 0.50 mm
0.0 mm/h
0.0 442 cm
02:15 Bedeckt2 5.0 °C
4.9 °C
94 %
4.0 °C
1009.8 hPa 3.2 km/h
1 Bft
6.5 km/h
2 Bft
OSO -
0.0 mm/h
0.0 441 cm
02:30 Bedeckt2 5.0 °C
5.0 °C
94 %
4.0 °C
1009.9 hPa 3.2 km/h
1 Bft
4.7 km/h
1 Bft
SO -
0.0 mm/h
0.0 440 cm
02:45 Bedeckt2 4.9 °C
4.1 °C
94 %
3.9 °C
1009.8 hPa 3.2 km/h
1 Bft
6.5 km/h
2 Bft
S -
0.0 mm/h
0.0 440 cm
03:00 Bedeckt2 4.8 °C
4.8 °C
94 %
3.8 °C
1009.3 hPa 3.2 km/h
1 Bft
7.9 km/h
2 Bft
OSO 0.00 mm
0.0 mm/h
0.0 440 cm
03:15 Bedeckt2 4.7 °C
4.6 °C
94 %
3.7 °C
1009.1 hPa 3.2 km/h
1 Bft
11.2 km/h
2 Bft
OSO -
0.0 mm/h
0.0 439 cm
03:30 Bedeckt2 4.7 °C
4.6 °C
94 %
3.7 °C
1008.9 hPa 3.2 km/h
1 Bft
7.9 km/h
2 Bft
SO -
0.0 mm/h
0.0 439 cm
03:45 Bedeckt2 4.6 °C
4.5 °C
94 %
3.6 °C
1008.8 hPa 3.2 km/h
1 Bft
6.5 km/h
2 Bft
SO -
0.0 mm/h
0.0 439 cm
04:00 Bedeckt2 4.6 °C
3.8 °C
94 %
3.6 °C
1008.2 hPa 4.7 km/h
1 Bft
11.2 km/h
2 Bft
S 0.00 mm
0.0 mm/h
0.0 439 cm
04:15 Bedeckt2 4.6 °C
4.6 °C
94 %
3.6 °C
1007.8 hPa 4.7 km/h
1 Bft
11.2 km/h
2 Bft
OSO -
0.0 mm/h
0.0 438 cm
04:30 Bedeckt2 4.6 °C
4.6 °C
94 %
3.6 °C
1007.8 hPa 3.2 km/h
1 Bft
9.7 km/h
2 Bft
S -
0.0 mm/h
0.0 438 cm
04:45 Leichter Regen1 4.4 °C
3.5 °C
94 %
3.4 °C
1007.5 hPa 3.2 km/h
1 Bft
7.9 km/h
2 Bft
S -
0.0 mm/h
0.0 437 cm
05:00 Bedeckt2 4.3 °C
4.1 °C
94 %
3.3 °C
1007.3 hPa 3.2 km/h
1 Bft
9.7 km/h
2 Bft
OSO 0.25 mm
0.0 mm/h
0.0 437 cm
05:15 Bedeckt2 4.2 °C
4.0 °C
94 %
3.2 °C
1007.2 hPa 3.2 km/h
1 Bft
11.2 km/h
2 Bft
SO -
0.0 mm/h
0.0 436 cm
05:30 Leichter Regen1 4.2 °C
3.3 °C
94 %
3.2 °C
1007.0 hPa 3.2 km/h
1 Bft
11.2 km/h
2 Bft
SO -
0.0 mm/h
0.0 436 cm
05:45 Leichter Regen4 4.2 °C
4.2 °C
94 %
3.2 °C
1006.7 hPa 3.2 km/h
1 Bft
13.0 km/h
3 Bft
OSO -
0.0 mm/h
0.0 436 cm
06:00 Leichter Regen1 4.2 °C
1.2 °C
95 %
3.3 °C
1006.3 hPa 4.7 km/h
1 Bft
11.2 km/h
2 Bft
SO 0.50 mm
0.0 mm/h
0.0 436 cm
06:15 Leichter Regen1 4.2 °C
4.2 °C
95 %
3.3 °C
1005.9 hPa 4.7 km/h
1 Bft
14.4 km/h
3 Bft
SO -
1.0 mm/h
0.0 435 cm
06:30 Leichter Regen1 4.2 °C
4.0 °C
95 %
3.3 °C
1005.4 hPa 6.5 km/h
2 Bft
16.2 km/h
3 Bft
SO -
1.0 mm/h
0.0 435 cm
06:45 Leichter Regen1 4.2 °C
4.2 °C
95 %
3.3 °C
1005.2 hPa 4.7 km/h
1 Bft
14.4 km/h
3 Bft
SO -
0.8 mm/h
0.0 435 cm
07:00 Leichter Regen1 4.2 °C
4.0 °C
95 %
3.3 °C
1004.7 hPa 6.5 km/h
2 Bft
17.6 km/h
3 Bft
SO 1.36 mm
0.8 mm/h
0.0 435 cm
07:15 Leichter Regen1 4.2 °C
4.0 °C
95 %
3.3 °C
1004.4 hPa 3.2 km/h
1 Bft
19.4 km/h
3 Bft
SO -
0.8 mm/h
0.0 435 cm
07:30 Leichter Regen1 4.2 °C
4.0 °C
95 %
3.3 °C
1004.0 hPa 6.5 km/h
2 Bft
14.4 km/h
3 Bft
OSO -
0.8 mm/h
0.0 434 cm
07:45 Leichter Regen1 4.2 °C
4.2 °C
95 %
3.3 °C
1003.7 hPa 3.2 km/h
1 Bft
16.2 km/h
3 Bft
S -
1.0 mm/h
0.0 434 cm
08:00 Leichter Regen1 4.2 °C
1.6 °C
95 %
3.3 °C
1003.4 hPa 6.5 km/h
2 Bft
16.2 km/h
3 Bft
OSO 1.33 mm
1.2 mm/h
0.0 433 cm
08:15 Leichter Regen1 4.4 °C
4.2 °C
95 %
3.5 °C
1003.0 hPa 4.7 km/h
1 Bft
17.6 km/h
3 Bft
SO -
1.2 mm/h
0.0 433 cm
08:30 Leichter Regen1 4.2 °C
3.3 °C
95 %
3.3 °C
1002.5 hPa 7.9 km/h
2 Bft
14.4 km/h
3 Bft
SO -
1.6 mm/h
0.0 432 cm
08:45 Leichter Regen1 4.1 °C
2.5 °C
95 %
3.2 °C
1002.2 hPa 7.9 km/h
2 Bft
17.6 km/h
3 Bft
O -
1.6 mm/h
0.0 432 cm
09:00 Leichter Regen1 4.1 °C
2.5 °C
95 %
3.2 °C
1002.0 hPa 6.5 km/h
2 Bft
16.2 km/h
3 Bft
OSO 2.11 mm
4.0 mm/h
0.0 432 cm
09:15 Leichter Regen1 4.2 °C
3.3 °C
95 %
3.3 °C
1001.6 hPa 6.5 km/h
2 Bft
14.4 km/h
3 Bft
SO -
2.6 mm/h
0.0 432 cm
09:30 Leichter Regen1 4.2 °C
3.3 °C
95 %
3.3 °C
1001.4 hPa 3.2 km/h
1 Bft
14.4 km/h
3 Bft
SO -
2.6 mm/h
0.0 432 cm
09:45 Leichter Regen1 4.3 °C
2.0 °C
95 %
3.4 °C
1001.2 hPa 4.7 km/h
1 Bft
14.4 km/h
3 Bft
S -
2.4 mm/h
0.0 431 cm
10:00 Leichter Regen1 4.5 °C
4.4 °C
95 %
3.6 °C
1001.0 hPa 4.7 km/h
1 Bft
16.2 km/h
3 Bft
OSO 3.19 mm
3.2 mm/h
0.0 431 cm
10:15 Leichter Regen1 4.4 °C
1.8 °C
95 %
3.5 °C
1000.7 hPa 6.5 km/h
2 Bft
17.6 km/h
3 Bft
OSO -
2.6 mm/h
0.0 431 cm
10:30 Leichter Regen1 4.4 °C
4.2 °C
95 %
3.5 °C
1000.4 hPa 6.5 km/h
2 Bft
14.4 km/h
3 Bft
O -
2.6 mm/h
0.0 431 cm
10:45 Leichter Regen1 4.5 °C
3.7 °C
95 %
3.6 °C
1000.3 hPa 4.7 km/h
1 Bft
14.4 km/h
3 Bft
O -
2.0 mm/h
0.0 431 cm
11:00 Leichter Regen1 4.5 °C
1.1 °C
95 %
3.6 °C
1000.1 hPa 7.9 km/h
2 Bft
22.7 km/h
4 Bft
SO 2.61 mm
1.8 mm/h
0.0 431 cm
11:15 Leichter Regen1 4.6 °C
2.3 °C
96 %
3.9 °C
999.8 hPa 6.5 km/h
2 Bft
16.2 km/h
3 Bft
OSO -
2.2 mm/h
0.0 431 cm
11:30 Leichter Regen1 4.7 °C
4.7 °C
95 %
3.8 °C
999.7 hPa 6.5 km/h
2 Bft
16.2 km/h
3 Bft
SSO -
3.2 mm/h
0.0 431 cm
11:45 Leichter Regen1 5.0 °C
4.9 °C
96 %
4.3 °C
999.4 hPa 4.7 km/h
1 Bft
13.0 km/h
3 Bft
OSO -
1.6 mm/h
0.0 431 cm
12:00 Bedeckt2 5.7 °C
5.7 °C
96 %
5.0 °C
999.3 hPa 3.2 km/h
1 Bft
13.0 km/h
3 Bft
OSO 1.61 mm
1.0 mm/h
0.0 431 cm
12:15 Leichter Regen1 5.8 °C
5.8 °C
96 %
5.1 °C
999.1 hPa 3.2 km/h
1 Bft
9.7 km/h
2 Bft
OSO -
0.0 mm/h
0.0 431 cm
12:30 Leichter Regen1 5.6 °C
5.6 °C
95 %
4.7 °C
998.7 hPa 6.5 km/h
2 Bft
11.2 km/h
2 Bft
OSO -
0.0 mm/h
0.0 431 cm
12:45 Nieselregen2 5.6 °C
5.6 °C
95 %
4.7 °C
998.5 hPa 3.2 km/h
1 Bft
11.2 km/h
2 Bft
OSO -
0.0 mm/h
0.0 432 cm





-- cm




-
-- cm




-
-- cm




-
-- cm





-- cm




-
-- cm




-
-- cm




-
-- cm





-- cm




-
-- cm




-
-- cm




-
-- cm





-- cm




-
-- cm




-
-- cm




-
-- cm





-- cm




-
-- cm




-
-- cm




-
-- cm





-- cm




-
-- cm




-
-- cm




-
-- cm





-- cm




-
-- cm




-
-- cm




-
-- cm





-- cm




-
-- cm




-
-- cm




-
-- cm





-- cm




-
-- cm




-
-- cm




-
-- cm





-- cm




-
-- cm




-
-- cm




-
-- cm





-- cm




-
-- cm




-
-- cm




-
-- cm





-- cm
Messwerte stehen ab 00:15 Uhr zur Verfügung.
Aus technischen Gründen wird die Niederschlagssumme der vorangegangenen Stunde erst um :30 der Folgestunde aktualisiert. Die Pegelstände werden ab 01:45 Uhr 15 Minuten zeitversetzt aktualisiert. Datenbasis Wetterzustand: ¹ Wetterstation Köln-Nippes (Stellwerk), ² powered by , ³ powered by OpenWeatherMap, CC BY-SA 4.0; Warnlage: DWD, Pegelonline, LANUV; Pegel Köln: Pegelonline
 
Extrem- und Durchschnittswerte
  Temperatur Luftfeuchte Luftdruck Wind Windböen Wind-
richtung
Regen UV-Index Pegel Köln KKT
Min

Max

Ø
4.1 °C
06:10 Uhr
5.8 °C
12:01 Uhr
4.6 °C
93.0 %
00:00 Uhr
96.0 %
08:13 Uhr
94.5 %
998.5 hPa
12:41 Uhr
1011.6 hPa
00:04 Uhr
1005.1 hPa
 
 
9.7 km/h
08:34 Uhr
4.3 km/h
 
 
22.7 km/h
10:53 Uhr
 
 
 
SO
 
 
 
 
14.24 mm
 
 
 
 
0.0
00:00 Uhr
 
431 cm
09:45 Uhr
444 cm
00:15 Uhr
 

NT
  gefühlt Taupunkt   Wind Windböen   Regenrate Ozon Sonne Mond
Min

Max

Ø
0.2 °C
10:53 Uhr
5.8 °C
12:01 Uhr
 
3.2 °C
05:03 Uhr
5.1 °C
12:01 Uhr
3.7 °C
   
 
2 Bft
08:34 Uhr
4.3 km/h
 
 
4 Bft
10:53 Uhr
 
   
 
4.0 mm/h
08:49 Uhr
 
 
Hürth
35 μg/m³
02:00 Uhr
 
▲ 08:14 Uhr
▼ 17:17 Uhr
▼ 08:29 Uhr
▲ 16:42 Uhr
KKT = Klimatologischer Kenntag: ET = Eistag, FT = Frosttag, KT = Kalter Tag, ST = Sommertag, HT = Hitzetag, TN = Tropennacht, NT = Niederschlagstag, SH = Schneehöhe (Max Tag); Datenbasis Ozon: LANUV, Land NRW, dl-de/by-2-0
 
Detaillierte Warnlage
















28.01.21

28.01.21

28.01.21

28.01.21

28.01.21

28.01.21

28.01.21
Datenbasis: DWD, Pegelonline, LANUV